TURKSAT 4A

Last updated on Jan. 27, 2020, 4:38 a.m. UTC

1 39522U 14007A   20026.79424194  .00000140  00000-0  00000+0 0  9997
2 39522   0.0712 269.2475 0004203  21.4181 162.7784  1.00269738 21817
UTC
Height (km)
Latitude
Longitude
Inclination
Orbital Period
UTC large
Height (km)
Speed (km/s)
/
Latitude / Longitude
Inclination (degrees)
Orbital Period (minutes)
Azimuth
Elevation
Range (km)
Doppler Factor
iOS Compass Heading
iOS Angle

Next 30 passes for location: Hong Kong

Rise time Rise Azimuth (degrees) Set time Set Azimuth (degrees) Duration Max altitude (degrees)

No matching passes for this satellites